Location: Olsztyn
(53.7767°N, 20.4765°E)
Time: 09:21:51
(UTC+01:00)

Vanguard 2 Rocket - All Passes

Search period start: 28 January 2022 00:00
Search period end: 07 February 2022 00:00
Orbit: 553 x 3325 km, 32.9° (Epoch: 27 January)

Date Brightness Start Highest point End Pass type
(mag) Time Alt. Az. Time Alt. Az. Time Alt. Az.
28 Jan - 01:19:11 10° SW 01:31:27 32° SSE 01:47:22 10° ESE visible
28 Jan - 03:31:22 10° WSW 03:46:08 37° S 04:03:11 10° SE visible
28 Jan - 05:46:31 10° WSW 06:00:57 27° SSW 06:15:24 10° SSE visible
28 Jan - 08:09:41 10° WSW 08:14:07 11° SW 08:18:26 10° SW daylight
28 Jan - 22:18:22 10° SE 22:19:01 10° SE 22:19:40 10° SE night (unlit)
29 Jan - 00:20:21 10° SSW 00:30:51 27° SSE 00:44:51 10° ESE visible
29 Jan - 02:31:18 10° SW 02:44:52 36° S 03:01:51 10° ESE visible
29 Jan - 04:45:09 10° WSW 04:59:49 31° SSW 05:15:38 10° SSE visible
29 Jan - 07:03:24 10° WSW 07:13:45 17° SW 07:23:51 10° S daylight
29 Jan - 23:22:16 10° S 23:30:40 21° SE 23:41:43 10° ESE visible
30 Jan - 01:31:43 10° SW 01:43:50 34° SSE 02:00:00 10° ESE visible
30 Jan - 03:44:26 10° WSW 03:58:34 34° SSW 04:15:10 10° SE visible
30 Jan - 06:00:25 10° WSW 06:13:02 22° SW 06:25:59 10° S visible
30 Jan - 22:25:28 10° SSE 22:30:55 14° SE 22:37:31 10° ESE night (unlit)
31 Jan - 00:32:38 10° SSW 00:43:09 30° SSE 00:57:42 10° ESE visible
31 Jan - 02:44:14 10° WSW 02:57:21 35° S 03:14:02 10° SE visible
31 Jan - 04:58:41 10° WSW 05:12:05 27° SSW 05:26:47 10° SSE visible
31 Jan - 07:21:04 10° WSW 07:25:35 11° SW 07:30:05 10° SW daylight
31 Jan - 23:34:08 10° SSW 23:42:53 24° SSE 23:54:57 10° ESE visible
01 Feb - 01:44:32 10° SW 01:56:20 34° S 02:12:22 10° ESE visible
01 Feb - 03:57:45 10° WSW 04:10:59 30° SSW 04:26:40 10° SSE visible
01 Feb - 06:15:20 10° WSW 06:25:04 16° SW 06:35:10 10° S visible
01 Feb - 22:36:26 10° S 22:43:01 18° SE 22:51:39 10° ESE visible
02 Feb - 00:45:17 10° SW 00:55:37 31° SSE 01:10:16 10° ESE visible
02 Feb - 02:57:25 10° WSW 03:09:53 32° S 03:25:51 10° SE visible
02 Feb - 05:12:46 10° WSW 05:24:18 21° SSW 05:37:02 10° S visible
02 Feb - 21:40:49 10° SSE 21:43:33 11° SE 21:46:37 10° ESE night (unlit)
02 Feb - 23:46:31 10° SSW 23:55:16 27° SSE 00:07:48 10° ESE visible
03 Feb - 01:57:36 10° WSW 02:08:55 32° S 02:24:26 10° SE visible
03 Feb - 04:11:26 10° WSW 04:23:22 25° SSW 04:37:33 10° SSE visible
03 Feb - 06:34:11 10° SW 06:37:04 10° SW 06:39:59 10° SW visible
03 Feb - 22:48:20 10° SSW 22:55:20 21° SSE 23:05:00 10° ESE visible
04 Feb - 00:58:13 10° SW 01:08:12 31° S 01:22:33 10° ESE visible
04 Feb - 03:10:53 10° WSW 03:22:25 28° SSW 03:37:09 10° SSE visible
04 Feb - 05:28:02 10° WSW 05:36:30 15° SW 05:45:42 10° S visible
04 Feb - 21:51:07 10° S 21:55:45 15° SE 22:01:33 10° ESE night (unlit)
04 Feb - 23:59:15 10° SW 00:07:49 28° SSE 00:20:20 10° ESE visible
05 Feb - 02:10:54 10° WSW 02:21:33 29° S 02:36:05 10° SE visible
05 Feb - 04:25:46 10° WSW 04:35:45 19° SSW 04:47:26 10° S visible
05 Feb - 23:00:45 10° SSW 23:07:48 23° SSE 23:17:53 10° ESE visible
06 Feb - 01:11:22 10° SW 01:20:53 29° S 01:34:31 10° SE visible
06 Feb - 03:24:45 10° WSW 03:34:58 23° SSW 03:47:45 10° SSE visible
06 Feb - 22:02:54 10° S 22:08:09 17° SSE 22:15:07 10° ESE night (unlit)
